DELTA 1 DEB, 10183

Orbit data source: Space-Track

DELTA 1 DEB, 10183 is space debris in LEO originally from a launch on Thu, 14 Jul 1977 UTC launched from the Air Force Eastern Test Range (AFETR). Debris objects in space refer to the collection of defunct objects orbiting the Earth. Examples of debris include non-operational satellites, rocket bodies, and fragments generated from explosions, collisions, or faulty payload assembly.

Loading next visibility...
Identifier
10183, 1977-065M
Orbit
LEO
Country
Flag of USUS
Related business
Manufacturer
Unknown
Mission
Spacecraft
Bus & Motor
Unknown
Mass
Unknown
Launch date (UTC)
1977-07-14 (48 years ago)
Launch vehicle
Unknown
Launch site
Air Force Eastern Test Range (AFETR)
Object type
Payload
Rocket body
Debris
Shape & HBR
Unknown shape, 0.2 m
Radar Cross Section
Medium (>0.1 m² and <1 m²)

Expand to show TLE details & history
Last TLE update: 12 hours ago

TLE from 12 hours ago
0 DELTA 1 DEB
1 10183U 77065M   25351.59901759  .00006922  00000-0  16913-2 0  9990
2 10183  29.2124  66.0710 0468631 203.7224 154.1078 14.00981540385119
Epoch: 2025-12-17T14:22Z
TLE epoch observation values (Epoch: 2025-12-17T14:22:35.119Z)
Latitude
0.00003°
Longitude
123.95815°
Altitude
1,198.018 km
Speed
7.101 km/s
True Right ascension
04h 24m 17s
True Declination
0° 00' 00"
Sunlit
Object was in full shadow at epoch
Visualization orbit readout
Latitude
Unknown
Longitude
Unknown
Altitude
Unknown
Speed
Unknown
Apparent Right ascension
Unknown
Apparent Declination
Unknown
Sunlit
N/A
Visualization observer readout
Local Sidereal Time
01:29:54
Azimuth
Unknown
Elevation
Unknown
Doppler factor
Unknown
Orbital elements
Apogee altitude
1,235.121 km
Perigee altitude
553.502 km
Semi-major axis
7,272.448 km
Eccentricity
0.04686
Inclination
29.2124°
RAAN
66.071°
Arg. of periapsis
203.7224°
True anomaly
156.33465°
Mean anomaly
154.1078°
Eccentric anomaly
155.23266°
Mean motion
3.49963 °/min
Orbital period
102.87 mins
BSTAR
0.0016913
Loading maneuver chart data...
Computing Atmospheric mass density...

Documentation

Showing up to 5 results
|